Other Public Products
Issued by NWS Grand Forks, ND

Home | Current Version | Previous Version | Graphics & Text | Print | Product List | Glossary On
Versions: 1 2 3 4 5 6 7 8 9 10 11 12 13 14 15 16 17 18 19 20 21 22 23 24 25 26 27 28 29 30 31 32 33 34 35 36 37 38 39 40 41 42 43 44 45 46 47 48 49 50
000
FPUS83 KFGF 270631
OPUFGF
PRAIRIE TO PINES WEATHER ROUNDUP
NATIONAL WEATHER SERVICE EASTERN NORTH DAKOTA/GRAND FORKS ND
1200 AM CST TUE JAN 27 2015

 **SATELLITE DATA USED TO AUGMENT SKY COVER AT AUTOMATED STATIONS**
 *****  WEATHER ACROSS EASTERN NORTH DAKOTA  *****

CITY           SKY/WX    TMP DP  RH WIND       PRES   REMARKS
GRAND FORKS    CLOUDY    25  25 100 SE6       30.03S FOG     WCI  18
6HR MIN TEMP:  23; 6HR MAX TEMP:  29;

GRAND FORKS AF CLEAR     21  19  93 SE5       30.02S WCI  14
GRAND CITY NWS NOT AVBL
BUXTON         NOT AVBL
DEVILS LAKE    CLEAR     25  21  86 SE3       29.97S
6HR MIN TEMP:  21; 6HR MAX TEMP:  34;

FARGO          MOCLDY    26  23  88 NE6       30.03R WCI  19
6HR MIN TEMP:  25; 6HR MAX TEMP:  31;

WAHPETON ARPT  CLEAR     28  27  93 CALM      30.04R
$$

 *****  WEATHER ACROSS CENTRAL AND WESTERN NORTH DAKOTA  *****

CITY           SKY/WX    TMP DP  RH WIND       PRES   REMARKS
JAMESTOWN      CLEAR     26  25  96 S3        29.98S
6HR MIN TEMP:  25; 6HR MAX TEMP:  34;

BISMARCK       PTCLDY    31  29  92 CALM      29.97S
6HR MIN TEMP:  29; 6HR MAX TEMP:  38;

MINOT          FAIR      30  27  88 CALM      29.91R
6HR MIN TEMP:  29; 6HR MAX TEMP:  38;

MINOT AFB      CLEAR     26  26 100 SE6       29.90S WCI  20
6HR MIN TEMP:  26; 6HR MAX TEMP:  34;

GARRISON         N/A     32  29  88 S6        29.92S
6HR MIN TEMP:  30; 6HR MAX TEMP:  38;

WILLISTON      PTCLDY    29  27  92 CALM      29.88S
6HR MIN TEMP:  28; 6HR MAX TEMP:  43;

DICKINSON      CLEAR     35  30  82 S6        29.88F
6HR MIN TEMP:  33; 6HR MAX TEMP:  41;

HETTINGER      CLEAR     31  27  85 SE3       29.94S
6HR MIN TEMP:  28; 6HR MAX TEMP:  43;

$$

 *****  OTHER OBSERVATIONS NORTHEAST NORTH DAKOTA  *****

CITY           SKY/WX    TMP DP  RH WIND       PRES   REMARKS
WALHALLA         N/A     21  21 100 SE5       29.99S WCI  15
LANGDON        FOG       19  18  93 S5        29.96R VSB 1/2 WCI  13
CAVALIER       MOCLDY    21  21 100 S6        30.01S WCI  14
GRAFTON        NOT AVBL
CANDO          FAIR      23  23 100 S7        29.97S WCI  15
FORT TOTTEN    NOT AVBL
ROLLA          FAIR      28  28 100 S6        29.95R WCI  22
RUGBY          FAIR      19  19 100 SE7       29.95R WCI  10
 ***** THE ABOVE OBSERVATIONS ARE NON NWS ARE NOT QUALITY
        CONTROLLED AND MAY MIS-REPORT RAIN FOR SNOW...
$$

 *****  OTHER OBSERVATIONS SOUTHEAST NORTH DAKOTA *****

CITY           SKY/WX    TMP DP  RH WIND       PRES   REMARKS
COOPERSTOWN    NOT AVBL
VALLEY CITY    FOG       27  27 100 S5        30.01R VSB 3/4 WCI  21
OAKES            N/A     28  28 100 SW3       30.02R
GWINNER        CLEAR     30  30 100 SW5       30.03S
SHEYENNE NWR     N/A     22  21  96 CALM      29.95
BUFFALO        NOT AVBL
WYNDMERE         N/A     28  28 100 E2          N/A
 ***** THE ABOVE OBSERVATIONS ARE NON NWS ARE NOT QUALITY
       CONTROLLED AND MAY MIS-REPORT RAIN FOR SNOW...
$$

  *****  WEATHER ACROSS NORTHERN MINNESOTA  *****

CITY           SKY/WX    TMP DP  RH WIND       PRES   REMARKS
FLAG ISLAND    CLOUDY    21  19  93 W6        30.00S WCI  14
WARROAD        CLOUDY    23  19  86 CALM      30.02R
ROSEAU         CLOUDY    23  18  80 CALM      30.02R HAZE
HALLOCK        CLOUDY    25  23  93 S5        30.02S WCI  19
THF RVR FALLS  CLOUDY    27  25  93 CALM      30.03R
6HR MIN TEMP:  27; 6HR MAX TEMP:  28;

HALSTAD          N/A     27  25  91 CALM        N/A
FOSSTON        CLOUDY    25  23  93 CALM      30.02R
BAUDETTE       CLOUDY    24  21  88 NW3       30.00R
6HR MIN TEMP:  24; 6HR MAX TEMP:  27;

WASKISH        CLOUDY    27  23  86 CALM      30.01R
CROOKSTON      CLOUDY    27  25  93 CALM      30.05R
$$
  *****  WEATHER ACROSS CENTRAL AND WEST MINNESOTA  *****

CITY           SKY/WX    TMP DP  RH WIND       PRES   REMARKS
BEMIDJI        CLOUDY    27  25  92 W7        30.00R WCI  19
PARK RAPIDS    CLOUDY    28  25  88 NW7       29.99R WCI  21
6HR MIN TEMP:  28; 6HR MAX TEMP:  32;

WADENA         CLOUDY    27  25  93 NW5       30.01R WCI  21
DETROIT LAKES  CLOUDY    28  28 100 NW7       30.02S WCI  21
MOORHEAD       CLOUDY    28  28 100 NE3       30.05R
FERGUS FALLS   CLOUDY    28  27  93 NE3       30.06R
ELBOW LAKE     CLOUDY    28  27  96 N5        30.02S WCI  23
6HR MIN TEMP:  28; 6HR MAX TEMP:  32;

MORRIS MN      CLEAR     28  27  93 N5        30.02S WCI  23
STAPLES        CLOUDY    28  25  86 NW6       30.01R WCI  22
WHEATON        CLEAR     25  25 100 CALM      30.06S
$$
  *****  WEATHER ELSEWHERE ACROSS MINNESOTA  *****

CITY           SKY/WX    TMP DP  RH WIND       PRES   REMARKS
DULUTH         CLOUDY    27  22  81 N7        29.96R WCI  19
6HR MIN TEMP:  27; 6HR MAX TEMP:  31;

INTRNTL FALLS  CLOUDY    25  21  85 W3        29.99R
6HR MIN TEMP:  25; 6HR MAX TEMP:  27;

ELY            CLOUDY    21  19  93 CALM      29.97R
CLOQUET        CLOUDY    28  21  74 NW9       29.98R WCI  20
BRAINERD       CLOUDY    31  25  78 N6        30.00R
6HR MIN TEMP:  31; 6HR MAX TEMP:  36;

HIBBING        CLOUDY    27  21  78 N7        29.97R WCI  19
6HR MIN TEMP:  27; 6HR MAX TEMP:  30;

ALEXANDRIA     CLOUDY    29  26  89 N5        30.01R WCI  24
6HR MIN TEMP:  29; 6HR MAX TEMP:  33;

SAINT CLOUD    CLOUDY    33  26  75 N7        30.00R
6HR MIN TEMP:  33; 6HR MAX TEMP:  38;

MINNEAPOLIS    CLOUDY    36  27  69 N8        29.99R
6HR MIN TEMP:  36; 6HR MAX TEMP:  40;

$$

  *****  WEATHER ACROSS SOUTH DAKOTA  *****

CITY           SKY/WX    TMP DP  RH WIND       PRES   REMARKS
SIOUX FALLS    PTCLDY    32  29  88 W3        30.03R
6HR MIN TEMP:  30; 6HR MAX TEMP:  40;

BROOKINGS      NOT AVBL
WATERTOWN      CLEAR     27  25  92 CALM      30.01S
6HR MIN TEMP:  27; 6HR MAX TEMP:  37;

HURON          CLEAR     28  27  96 CALM      30.04R
6HR MIN TEMP:  28; 6HR MAX TEMP:  37;

SISSETON         N/A     28  28 100 CALM      30.02S
ABERDEEN       CLEAR     28  26  92 E5        30.03S WCI  23
6HR MIN TEMP:  28; 6HR MAX TEMP:  38;

MITCHELL       CLEAR     33  30  88 CALM      30.06R
PIERRE         CLEAR     30  27  88 E6        29.99R WCI  24
6HR MIN TEMP:  29; 6HR MAX TEMP:  46;

MOBRIDGE       CLEAR     34  30  85 SE6       29.96S
RAPID CITY     CLEAR     34  26  72 W3        29.98R
6HR MIN TEMP:  34; 6HR MAX TEMP:  53;

$$

  *****  SOME WEATHER IN NEARBY STATES *****

CITY           SKY/WX    TMP DP  RH WIND       PRES   REMARKS
GLASGOW MT     PTCLDY    34  31  88 E9        29.84S
6HR MIN TEMP:  34; 6HR MAX TEMP:  47;

GREAT FALLS MT PTCLDY    50  29  44 SW16      29.93S
6HR MIN TEMP:  48; 6HR MAX TEMP:  58;

CHEYENNE WY    PTCLDY    44  19  36 W13       30.21S
6HR MIN TEMP:  40; 6HR MAX TEMP:  58;

SCOTTSBLUFF NE CLEAR     38  29  70 NW7       30.11S
6HR MIN TEMP:  38; 6HR MAX TEMP:  53;

OMAHA NE       CLEAR     34  30  85 NW5       30.05R
6HR MIN TEMP:  34; 6HR MAX TEMP:  48;

DES MOINES IA  MOCLDY    38  32  79 NW9       30.01R
6HR MIN TEMP:  36; 6HR MAX TEMP:  48;

DAVENPORT IA   CLOUDY    32  29  88 NW8       29.92R WCI  25
6HR MIN TEMP:  31; 6HR MAX TEMP:  33;

CHICAGO IL     LGT SNOW  26  24  92 SE5       29.90S FOG     WCI  20
6HR MIN TEMP:  25; 6HR MAX TEMP:  26; 6HR PCP:  0.07;

EAU CLAIRE WI  CLOUDY    27  24  89 CALM      29.95R
6HR MIN TEMP:  27; 6HR MAX TEMP:  27; 6HR PCP: TRACE;

LA CROSSE WI   CLOUDY    30  27  88 NW3       29.95R FOG
6HR MIN TEMP:  30; 6HR MAX TEMP:  31; 6HR PCP: TRACE;

$$

  *****  SOME NATIONAL WEATHER *****

CITY           SKY/WX    TMP DP  RH WIND       PRES   REMARKS


USA.gov is the U.S. government's official web portal to all federal, state and local government web resources and services.